owner,sensor,date,latitude,longitude,air_temperature,qcFlag 
TABS,ioos:station:wmo:42046:1,2007-12-01T00:00:00Z,27.8903,-94.0367,-3.0,11144222 
TABS,ioos:station:wmo:42046:1,2007-12-01T00:30:00Z,27.8903,-94.0367,-2.9,11144222 
TABS,ioos:station:wmo:42046:1,2007-12-01T01:00:00Z,27.8903,-94.0367,-2.8,11144222 
TABS,ioos:station:wmo:42046:1,2007-12-01T01:30:00Z,27.8903,-94.0367,-3.0,11144222 
TABS,ioos:station:wmo:42046:1,2007-12-01T02:00:00Z,27.8903,-94.0367,-3.7,11144222 
TABS,ioos:station:wmo:42046:1,2007-12-01T02:30:00Z,27.8903,-94.0367,-3.6,11144222 
TABS,ioos:station:wmo:42046:1,2007-12-01T03:00:00Z,27.8903,-94.0367,-4.2,11144222 
TABS,ioos:station:wmo:42046:1,2007-12-01T03:30:00Z,27.8903,-94.0367,-4.9,11144222 
TABS,ioos:station:wmo:42046:1,2007-12-01T04:00:00Z,27.8903,-94.0367,-4.3,11144222 
TABS,ioos:station:wmo:42046:1,2007-12-01T04:30:00Z,27.8903,-94.0367,-4.8,11144222 
TABS,ioos:station:wmo:42046:1,2007-12-01T05:00:00Z,27.8903,-94.0367,-4.5,11144222 
TABS,ioos:station:wmo:42046:1,2007-12-01T05:30:00Z,27.8903,-94.0367,-4.7,11144222 
TABS,ioos:station:wmo:42046:1,2007-12-01T06:00:00Z,27.8903,-94.0367,-4.8,11144222 
TABS,ioos:station:wmo:42046:1,2007-12-01T06:30:00Z,27.8903,-94.0367,-4.8,11144222 
TABS,ioos:station:wmo:42046:1,2007-12-01T07:00:00Z,27.8903,-94.0367,-4.7,11144222 
TABS,ioos:station:wmo:42046:1,2007-12-01T07:30:00Z,27.8903,-94.0367,-4.9,11144222 
TABS,ioos:station:wmo:42046:1,2007-12-01T08:00:00Z,27.8903,-94.0367,-4.4,11144222 
TABS,ioos:station:wmo:42046:1,2007-12-01T08:30:00Z,27.8903,-94.0367,-4.5,11144222 
TABS,ioos:station:wmo:42046:1,2007-12-01T09:00:00Z,27.8903,-94.0367,-4.6,11144222 
TABS,ioos:station:wmo:42046:1,2007-12-01T09:30:00Z,27.8903,-94.0367,-4.2,11144222 
TABS,ioos:station:wmo:42046:1,2007-12-01T10:00:00Z,27.8903,-94.0367,-3.9,11144222 
TABS,ioos:station:wmo:42046:1,2007-12-01T10:30:00Z,27.8903,-94.0367,-4.0,11144222 
TABS,ioos:station:wmo:42046:1,2007-12-01T11:00:00Z,27.8903,-94.0367,-4.0,11144222 
TABS,ioos:station:wmo:42046:1,2007-12-01T11:30:00Z,27.8903,-94.0367,-4.2,11144222 
TABS,ioos:station:wmo:42046:1,2007-12-01T12:00:00Z,27.8903,-94.0367,-4.2,11144222 
TABS,ioos:station:wmo:42046:1,2007-12-01T12:30:00Z,27.8903,-94.0367,-4.4,11144222 
TABS,ioos:station:wmo:42046:1,2007-12-01T13:00:00Z,27.8903,-94.0367,-4.9,11144222 
TABS,ioos:station:wmo:42046:1,2007-12-01T13:30:00Z,27.8903,-94.0367,-4.9,11144222 
TABS,ioos:station:wmo:42046:1,2007-12-01T14:00:00Z,27.8903,-94.0367,-4.9,11144222 
TABS,ioos:station:wmo:42046:1,2007-12-01T14:30:00Z,27.8903,-94.0367,-5.2,11144222 
TABS,ioos:station:wmo:42046:1,2007-12-01T15:00:00Z,27.8903,-94.0367,-5.1,11144222 
TABS,ioos:station:wmo:42046:1,2007-12-01T15:30:00Z,27.8903,-94.0367,-5.5,11144222 
TABS,ioos:station:wmo:42046:1,2007-12-01T16:00:00Z,27.8903,-94.0367,-5.2,11144222 
TABS,ioos:station:wmo:42046:1,2007-12-01T16:30:00Z,27.8903,-94.0367,-5.2,11144222 
TABS,ioos:station:wmo:42046:1,2007-12-01T17:00:00Z,27.8903,-94.0367,-5.3,11144222 
TABS,ioos:station:wmo:42046:1,2007-12-01T17:30:00Z,27.8903,-94.0367,-5.4,11144222 
TABS,ioos:station:wmo:42046:1,2007-12-01T18:00:00Z,27.8903,-94.0367,-5.4,11144222 
TABS,ioos:station:wmo:42046:1,2007-12-01T18:30:00Z,27.8903,-94.0367,-5.6,11144222 
TABS,ioos:station:wmo:42046:1,2007-12-01T19:00:00Z,27.8903,-94.0367,-5.5,11144222 
TABS,ioos:station:wmo:42046:1,2007-12-01T19:30:00Z,27.8903,-94.0367,-5.2,11144222 
TABS,ioos:station:wmo:42046:1,2007-12-01T20:00:00Z,27.8903,-94.0367,-5.4,11144222 
TABS,ioos:station:wmo:42046:1,2007-12-01T20:30:00Z,27.8903,-94.0367,-5.5,11144222 
TABS,ioos:station:wmo:42046:1,2007-12-01T21:00:00Z,27.8903,-94.0367,-5.6,11144222 
TABS,ioos:station:wmo:42046:1,2007-12-01T21:30:00Z,27.8903,-94.0367,-5.7,11144222 
TABS,ioos:station:wmo:42046:1,2007-12-01T22:00:00Z,27.8903,-94.0367,-5.6,11144222 
TABS,ioos:station:wmo:42046:1,2007-12-01T22:30:00Z,27.8903,-94.0367,-6.1,11144222 
TABS,ioos:station:wmo:42046:1,2007-12-01T23:00:00Z,27.8903,-94.0367,-6.3,11144222 
TABS,ioos:station:wmo:42046:1,2007-12-01T23:30:00Z,27.8903,-94.0367,-6.5,11144222 
TABS,ioos:station:wmo:42046:1,2007-12-02T00:00:00Z,27.8903,-94.0367,-6.7,11144222 
TABS,ioos:station:wmo:42046:1,2007-12-02T00:30:00Z,27.8903,-94.0367,-7.0,11144222 
TABS,ioos:station:wmo:42046:1,2007-12-02T01:00:00Z,27.8903,-94.0367,-7.2,11144222 
TABS,ioos:station:wmo:42046:1,2007-12-02T01:30:00Z,27.8903,-94.0367,-7.8,11144222 
TABS,ioos:station:wmo:42046:1,2007-12-02T02:00:00Z,27.8903,-94.0367,-8.1,11144222 
TABS,ioos:station:wmo:42046:1,2007-12-02T02:30:00Z,27.8903,-94.0367,-8.4,11144222 
TABS,ioos:station:wmo:42046:1,2007-12-02T03:00:00Z,27.8903,-94.0367,-9.1,11144222 
TABS,ioos:station:wmo:42046:1,2007-12-02T03:30:00Z,27.8903,-94.0367,-10.7,11144222 
TABS,ioos:station:wmo:42046:1,2007-12-02T04:00:00Z,27.8903,-94.0367,-12.0,11144222 
TABS,ioos:station:wmo:42046:1,2007-12-02T04:30:00Z,27.8903,-94.0367,-14.9,11144222 
TABS,ioos:station:wmo:42046:1,2007-12-02T05:00:00Z,27.8903,-94.0367,-17.1,11144222 
TABS,ioos:station:wmo:42046:1,2007-12-02T05:30:00Z,27.8903,-94.0367,-25.1,11144222 
TABS,ioos:station:wmo:42046:1,2007-12-02T06:00:00Z,27.8903,-94.0367,-23.2,11144222 
TABS,ioos:station:wmo:42046:1,2007-12-02T06:30:00Z,27.8903,-94.0367,-20.1,11144222 
TABS,ioos:station:wmo:42046:1,2007-12-02T07:00:00Z,27.8903,-94.0367,-12.7,11144222 
TABS,ioos:station:wmo:42046:1,2007-12-02T07:30:00Z,27.8903,-94.0367,-15.9,11144222 
TABS,ioos:station:wmo:42046:1,2007-12-02T08:00:00Z,27.8903,-94.0367,-11.7,11144222 
TABS,ioos:station:wmo:42046:1,2007-12-02T08:30:00Z,27.8903,-94.0367,-12.2,11144222 
TABS,ioos:station:wmo:42046:1,2007-12-02T09:00:00Z,27.8903,-94.0367,-12.6,11144222 
TABS,ioos:station:wmo:42046:1,2007-12-02T09:30:00Z,27.8903,-94.0367,-11.2,11144222 
TABS,ioos:station:wmo:42046:1,2007-12-02T10:00:00Z,27.8903,-94.0367,-11.6,11144222 
TABS,ioos:station:wmo:42046:1,2007-12-02T10:30:00Z,27.8903,-94.0367,-12.5,11144222 
TABS,ioos:station:wmo:42046:1,2007-12-02T11:00:00Z,27.8903,-94.0367,-12.9,11144222 
TABS,ioos:station:wmo:42046:1,2007-12-02T11:30:00Z,27.8903,-94.0367,-15.9,11144222 
TABS,ioos:station:wmo:42046:1,2007-12-02T12:00:00Z,27.8903,-94.0367,-19.8,11144222 
TABS,ioos:station:wmo:42046:1,2007-12-02T12:30:00Z,27.8903,-94.0367,-23.0,11144222 
TABS,ioos:station:wmo:42046:1,2007-12-02T13:00:00Z,27.8903,-94.0367,-24.6,11144222 
TABS,ioos:station:wmo:42046:1,2007-12-02T13:30:00Z,27.8903,-94.0367,-25.2,11144222 
TABS,ioos:station:wmo:42046:1,2007-12-02T14:00:00Z,27.8903,-94.0367,-25.3,11144222 
TABS,ioos:station:wmo:42046:1,2007-12-02T14:30:00Z,27.8903,-94.0367,-25.5,11144222 
TABS,ioos:station:wmo:42046:1,2007-12-02T15:00:00Z,27.8903,-94.0367,-24.7,11144222 
TABS,ioos:station:wmo:42046:1,2007-12-02T15:30:00Z,27.8903,-94.0367,-24.4,11144222 
TABS,ioos:station:wmo:42046:1,2007-12-02T16:00:00Z,27.8903,-94.0367,-24.3,11144222 
TABS,ioos:station:wmo:42046:1,2007-12-02T16:30:00Z,27.8903,-94.0367,-24.2,11144222 
TABS,ioos:station:wmo:42046:1,2007-12-02T17:00:00Z,27.8903,-94.0367,-24.2,11144222 
TABS,ioos:station:wmo:42046:1,2007-12-02T17:30:00Z,27.8903,-94.0367,-23.9,11144222 
TABS,ioos:station:wmo:42046:1,2007-12-02T18:00:00Z,27.8903,-94.0367,-24.0,11144222 
TABS,ioos:station:wmo:42046:1,2007-12-02T18:30:00Z,27.8903,-94.0367,-23.8,11144222 
TABS,ioos:station:wmo:42046:1,2007-12-02T19:00:00Z,27.8903,-94.0367,-23.8,11144222 
TABS,ioos:station:wmo:42046:1,2007-12-02T19:30:00Z,27.8903,-94.0367,-23.8,11144222 
TABS,ioos:station:wmo:42046:1,2007-12-02T20:00:00Z,27.8903,-94.0367,-23.7,11144222 
TABS,ioos:station:wmo:42046:1,2007-12-02T20:30:00Z,27.8903,-94.0367,-23.3,11144222 
TABS,ioos:station:wmo:42046:1,2007-12-02T21:00:00Z,27.8903,-94.0367,-23.2,11144222 
TABS,ioos:station:wmo:42046:1,2007-12-02T21:30:00Z,27.8903,-94.0367,-23.6,11144222 
TABS,ioos:station:wmo:42046:1,2007-12-02T22:00:00Z,27.8903,-94.0367,-23.4,11144222 
TABS,ioos:station:wmo:42046:1,2007-12-02T22:30:00Z,27.8903,-94.0367,-23.1,11144222 
TABS,ioos:station:wmo:42046:1,2007-12-02T23:00:00Z,27.8903,-94.0367,-23.2,11144222 
TABS,ioos:station:wmo:42046:1,2007-12-02T23:30:00Z,27.8903,-94.0367,-22.4,11144222 
TABS,ioos:station:wmo:42046:1,2007-12-03T00:00:00Z,27.8903,-94.0367,-21.7,11144222 
TABS,ioos:station:wmo:42046:1,2007-12-03T00:30:00Z,27.8903,-94.0367,-22.0,11144222 
TABS,ioos:station:wmo:42046:1,2007-12-03T01:00:00Z,27.8903,-94.0367,-20.8,11144222 
TABS,ioos:station:wmo:42046:1,2007-12-03T01:30:00Z,27.8903,-94.0367,-20.9,11144222 
TABS,ioos:station:wmo:42046:1,2007-12-03T02:00:00Z,27.8903,-94.0367,-20.2,11144222 
TABS,ioos:station:wmo:42046:1,2007-12-03T02:30:00Z,27.8903,-94.0367,-20.1,11144222 
TABS,ioos:station:wmo:42046:1,2007-12-03T03:00:00Z,27.8903,-94.0367,-20.0,11144222 
TABS,ioos:station:wmo:42046:1,2007-12-03T03:30:00Z,27.8903,-94.0367,-19.8,11144222 
TABS,ioos:station:wmo:42046:1,2007-12-03T04:00:00Z,27.8903,-94.0367,-19.3,11144222 
TABS,ioos:station:wmo:42046:1,2007-12-03T04:30:00Z,27.8903,-94.0367,-19.2,11144222 
TABS,ioos:station:wmo:42046:1,2007-12-03T05:00:00Z,27.8903,-94.0367,-19.0,11144222 
TABS,ioos:station:wmo:42046:1,2007-12-03T05:30:00Z,27.8903,-94.0367,-18.7,11144222 
TABS,ioos:station:wmo:42046:1,2007-12-03T06:00:00Z,27.8903,-94.0367,-18.0,11144222 
TABS,ioos:station:wmo:42046:1,2007-12-03T06:30:00Z,27.8903,-94.0367,-17.8,11144222 
TABS,ioos:station:wmo:42046:1,2007-12-03T07:00:00Z,27.8903,-94.0367,-17.1,11144222 
TABS,ioos:station:wmo:42046:1,2007-12-03T07:30:00Z,27.8903,-94.0367,-16.5,11144222 
TABS,ioos:station:wmo:42046:1,2007-12-03T08:00:00Z,27.8903,-94.0367,-16.8,11144222 
TABS,ioos:station:wmo:42046:1,2007-12-03T08:30:00Z,27.8903,-94.0367,-16.0,11144222 
TABS,ioos:station:wmo:42046:1,2007-12-03T09:00:00Z,27.8903,-94.0367,-16.2,11144222 
TABS,ioos:station:wmo:42046:1,2007-12-03T09:30:00Z,27.8903,-94.0367,-16.7,11144222 
TABS,ioos:station:wmo:42046:1,2007-12-03T10:00:00Z,27.8903,-94.0367,-19.0,11144222 
TABS,ioos:station:wmo:42046:1,2007-12-03T10:30:00Z,27.8903,-94.0367,-21.0,11144222 
TABS,ioos:station:wmo:42046:1,2007-12-03T11:00:00Z,27.8903,-94.0367,-17.9,11144222 
TABS,ioos:station:wmo:42046:1,2007-12-03T11:30:00Z,27.8903,-94.0367,-20.4,11144222 
TABS,ioos:station:wmo:42046:1,2007-12-03T12:00:00Z,27.8903,-94.0367,-19.5,11144222 
TABS,ioos:station:wmo:42046:1,2007-12-03T12:30:00Z,27.8903,-94.0367,-20.1,11144222 
TABS,ioos:station:wmo:42046:1,2007-12-03T13:00:00Z,27.8903,-94.0367,-19.6,11144222 
TABS,ioos:station:wmo:42046:1,2007-12-03T13:30:00Z,27.8903,-94.0367,-26.0,11144222 
TABS,ioos:station:wmo:42046:1,2007-12-03T14:00:00Z,27.8903,-94.0367,-26.4,11144222 
TABS,ioos:station:wmo:42046:1,2007-12-03T14:30:00Z,27.8903,-94.0367,-28.0,11144222 
TABS,ioos:station:wmo:42046:1,2007-12-03T15:00:00Z,27.8903,-94.0367,-29.4,11144222 
TABS,ioos:station:wmo:42046:1,2007-12-03T15:30:00Z,27.8903,-94.0367,-31.6,11144222 
TABS,ioos:station:wmo:42046:1,2007-12-03T16:00:00Z,27.8903,-94.0367,-35.0,11144222 
TABS,ioos:station:wmo:42046:1,2007-12-03T16:30:00Z,27.8903,-94.0367,-25.3,11144222 
TABS,ioos:station:wmo:42046:1,2007-12-03T17:00:00Z,27.8903,-94.0367,-28.0,11144222 
TABS,ioos:station:wmo:42046:1,2007-12-03T17:30:00Z,27.8903,-94.0367,-29.6,11144222 
TABS,ioos:station:wmo:42046:1,2007-12-03T18:00:00Z,27.8903,-94.0367,-27.5,11144222 
TABS,ioos:station:wmo:42046:1,2007-12-03T18:30:00Z,27.8903,-94.0367,-28.5,11144222 
TABS,ioos:station:wmo:42046:1,2007-12-03T19:00:00Z,27.8903,-94.0367,-27.7,11144222 
TABS,ioos:station:wmo:42046:1,2007-12-03T19:30:00Z,27.8903,-94.0367,-26.7,11144222 
TABS,ioos:station:wmo:42046:1,2007-12-03T20:00:00Z,27.8903,-94.0367,-23.8,11144222 
TABS,ioos:station:wmo:42046:1,2007-12-03T20:30:00Z,27.8903,-94.0367,-26.6,11144222 
TABS,ioos:station:wmo:42046:1,2007-12-03T21:00:00Z,27.8903,-94.0367,-26.0,11144222 
TABS,ioos:station:wmo:42046:1,2007-12-03T21:30:00Z,27.8903,-94.0367,-27.0,11144222 
TABS,ioos:station:wmo:42046:1,2007-12-03T22:00:00Z,27.8903,-94.0367,-25.3,11144222 
TABS,ioos:station:wmo:42046:1,2007-12-03T22:30:00Z,27.8903,-94.0367,-26.5,11144222 
TABS,ioos:station:wmo:42046:1,2007-12-03T23:00:00Z,27.8903,-94.0367,-26.9,11144222 
TABS,ioos:station:wmo:42046:1,2007-12-03T23:30:00Z,27.8903,-94.0367,-23.0,11144222 
TABS,ioos:station:wmo:42046:1,2007-12-04T00:00:00Z,27.8903,-94.0367,-23.5,11144222 
TABS,ioos:station:wmo:42046:1,2007-12-04T00:30:00Z,27.8903,-94.0367,-26.2,11144222 
TABS,ioos:station:wmo:42046:1,2007-12-04T01:00:00Z,27.8903,-94.0367,-30.4,11144222 
TABS,ioos:station:wmo:42046:1,2007-12-04T01:30:00Z,27.8903,-94.0367,-25.8,11144222 
TABS,ioos:station:wmo:42046:1,2007-12-04T02:00:00Z,27.8903,-94.0367,-20.3,11144222 
TABS,ioos:station:wmo:42046:1,2007-12-04T02:30:00Z,27.8903,-94.0367,-26.4,11144222 
TABS,ioos:station:wmo:42046:1,2007-12-04T03:00:00Z,27.8903,-94.0367,-24.1,11144222 
TABS,ioos:station:wmo:42046:1,2007-12-04T03:30:00Z,27.8903,-94.0367,-28.5,11144222 
TABS,ioos:station:wmo:42046:1,2007-12-04T04:00:00Z,27.8903,-94.0367,-23.0,11144222 
TABS,ioos:station:wmo:42046:1,2007-12-04T04:30:00Z,27.8903,-94.0367,-16.8,11144222 
TABS,ioos:station:wmo:42046:1,2007-12-04T05:00:00Z,27.8903,-94.0367,-15.3,11144222 
TABS,ioos:station:wmo:42046:1,2007-12-04T05:30:00Z,27.8903,-94.0367,-17.0,11144222 
TABS,ioos:station:wmo:42046:1,2007-12-04T06:00:00Z,27.8903,-94.0367,-17.1,11144222 
TABS,ioos:station:wmo:42046:1,2007-12-04T06:30:00Z,27.8903,-94.0367,-16.3,11144222 
TABS,ioos:station:wmo:42046:1,2007-12-04T07:00:00Z,27.8903,-94.0367,-13.8,11144222 
TABS,ioos:station:wmo:42046:1,2007-12-04T07:30:00Z,27.8903,-94.0367,-10.9,11144222 
TABS,ioos:station:wmo:42046:1,2007-12-04T08:00:00Z,27.8903,-94.0367,-9.6,11144222 
TABS,ioos:station:wmo:42046:1,2007-12-04T08:30:00Z,27.8903,-94.0367,-8.1,11144222 
TABS,ioos:station:wmo:42046:1,2007-12-04T09:00:00Z,27.8903,-94.0367,-5.9,11144222 
TABS,ioos:station:wmo:42046:1,2007-12-04T09:30:00Z,27.8903,-94.0367,-4.3,11144222 
TABS,ioos:station:wmo:42046:1,2007-12-04T10:00:00Z,27.8903,-94.0367,-3.8,11144222 
TABS,ioos:station:wmo:42046:1,2007-12-04T10:30:00Z,27.8903,-94.0367,-3.4,11144222 
TABS,ioos:station:wmo:42046:1,2007-12-04T11:00:00Z,27.8903,-94.0367,-2.6,11144222 
TABS,ioos:station:wmo:42046:1,2007-12-04T11:30:00Z,27.8903,-94.0367,-2.1,11144222 
TABS,ioos:station:wmo:42046:1,2007-12-04T12:00:00Z,27.8903,-94.0367,-1.8,11144222 
TABS,ioos:station:wmo:42046:1,2007-12-04T12:30:00Z,27.8903,-94.0367,-2.1,11144222 
TABS,ioos:station:wmo:42046:1,2007-12-04T13:00:00Z,27.8903,-94.0367,-2.0,11144222 
TABS,ioos:station:wmo:42046:1,2007-12-04T13:30:00Z,27.8903,-94.0367,-0.9,11144222 
TABS,ioos:station:wmo:42046:1,2007-12-04T14:00:00Z,27.8903,-94.0367,0.0,11144222 
TABS,ioos:station:wmo:42046:1,2007-12-04T14:30:00Z,27.8903,-94.0367,0.2,11144222 
TABS,ioos:station:wmo:42046:1,2007-12-04T15:00:00Z,27.8903,-94.0367,1.2,11144222 
TABS,ioos:station:wmo:42046:1,2007-12-04T15:30:00Z,27.8903,-94.0367,1.4,11144222 
TABS,ioos:station:wmo:42046:1,2007-12-04T16:00:00Z,27.8903,-94.0367,1.7,11144222 
TABS,ioos:station:wmo:42046:1,2007-12-04T16:30:00Z,27.8903,-94.0367,2.0,11144222 
TABS,ioos:station:wmo:42046:1,2007-12-04T17:00:00Z,27.8903,-94.0367,2.2,11144222 
TABS,ioos:station:wmo:42046:1,2007-12-04T17:30:00Z,27.8903,-94.0367,2.9,11144222 
TABS,ioos:station:wmo:42046:1,2007-12-04T18:00:00Z,27.8903,-94.0367,3.2,11144222 
TABS,ioos:station:wmo:42046:1,2007-12-04T18:30:00Z,27.8903,-94.0367,3.3,11144222 
TABS,ioos:station:wmo:42046:1,2007-12-04T19:00:00Z,27.8903,-94.0367,3.9,11144222 
TABS,ioos:station:wmo:42046:1,2007-12-04T19:30:00Z,27.8903,-94.0367,4.3,11144222 
TABS,ioos:station:wmo:42046:1,2007-12-04T20:00:00Z,27.8903,-94.0367,4.8,11144222 
TABS,ioos:station:wmo:42046:1,2007-12-04T20:30:00Z,27.8903,-94.0367,5.1,11144222 
TABS,ioos:station:wmo:42046:1,2007-12-04T21:00:00Z,27.8903,-94.0367,6.3,11144222 
TABS,ioos:station:wmo:42046:1,2007-12-04T21:30:00Z,27.8903,-94.0367,6.6,11144222 
TABS,ioos:station:wmo:42046:1,2007-12-04T22:00:00Z,27.8903,-94.0367,7.6,11144222 
TABS,ioos:station:wmo:42046:1,2007-12-04T22:30:00Z,27.8903,-94.0367,7.9,11144222 
TABS,ioos:station:wmo:42046:1,2007-12-04T23:00:00Z,27.8903,-94.0367,8.5,11144222 
TABS,ioos:station:wmo:42046:1,2007-12-04T23:30:00Z,27.8903,-94.0367,8.5,11144222 
TABS,ioos:station:wmo:42046:1,2007-12-05T00:00:00Z,27.8903,-94.0367,8.9,11144222 
TABS,ioos:station:wmo:42046:1,2007-12-05T00:30:00Z,27.8903,-94.0367,9.4,11144222 
TABS,ioos:station:wmo:42046:1,2007-12-05T01:00:00Z,27.8903,-94.0367,9.8,11144222 
TABS,ioos:station:wmo:42046:1,2007-12-05T01:30:00Z,27.8903,-94.0367,10.4,11144222 
TABS,ioos:station:wmo:42046:1,2007-12-05T02:00:00Z,27.8903,-94.0367,11.5,11144222 
TABS,ioos:station:wmo:42046:1,2007-12-05T02:30:00Z,27.8903,-94.0367,12.4,11144222 
TABS,ioos:station:wmo:42046:1,2007-12-05T03:00:00Z,27.8903,-94.0367,13.0,11144222 
TABS,ioos:station:wmo:42046:1,2007-12-05T03:30:00Z,27.8903,-94.0367,13.9,11144222 
TABS,ioos:station:wmo:42046:1,2007-12-05T04:00:00Z,27.8903,-94.0367,14.4,11144222 
TABS,ioos:station:wmo:42046:1,2007-12-05T04:30:00Z,27.8903,-94.0367,15.3,11144222 
TABS,ioos:station:wmo:42046:1,2007-12-05T05:00:00Z,27.8903,-94.0367,15.6,11144222 
TABS,ioos:station:wmo:42046:1,2007-12-05T05:30:00Z,27.8903,-94.0367,15.9,11144222 
TABS,ioos:station:wmo:42046:1,2007-12-05T06:00:00Z,27.8903,-94.0367,16.2,11144222 
TABS,ioos:station:wmo:42046:1,2007-12-05T06:30:00Z,27.8903,-94.0367,16.2,11144222 
TABS,ioos:station:wmo:42046:1,2007-12-05T07:00:00Z,27.8903,-94.0367,16.3,11144222 
TABS,ioos:station:wmo:42046:1,2007-12-05T07:30:00Z,27.8903,-94.0367,16.6,11144222 
TABS,ioos:station:wmo:42046:1,2007-12-05T08:00:00Z,27.8903,-94.0367,16.8,11144222 
TABS,ioos:station:wmo:42046:1,2007-12-05T08:30:00Z,27.8903,-94.0367,16.9,11144222 
TABS,ioos:station:wmo:42046:1,2007-12-05T09:00:00Z,27.8903,-94.0367,16.9,11144222 
TABS,ioos:station:wmo:42046:1,2007-12-05T09:30:00Z,27.8903,-94.0367,17.2,11144222 
TABS,ioos:station:wmo:42046:1,2007-12-05T10:00:00Z,27.8903,-94.0367,17.3,11144222 
TABS,ioos:station:wmo:42046:1,2007-12-05T10:30:00Z,27.8903,-94.0367,17.4,11144222 
TABS,ioos:station:wmo:42046:1,2007-12-05T11:00:00Z,27.8903,-94.0367,17.8,11144222 
TABS,ioos:station:wmo:42046:1,2007-12-05T11:30:00Z,27.8903,-94.0367,17.9,11144222 
TABS,ioos:station:wmo:42046:1,2007-12-05T12:00:00Z,27.8903,-94.0367,18.3,11144222 
TABS,ioos:station:wmo:42046:1,2007-12-05T12:30:00Z,27.8903,-94.0367,18.0,11144222 
TABS,ioos:station:wmo:42046:1,2007-12-05T13:00:00Z,27.8903,-94.0367,18.4,11144222 
TABS,ioos:station:wmo:42046:1,2007-12-05T13:30:00Z,27.8903,-94.0367,19.0,11144222 
TABS,ioos:station:wmo:42046:1,2007-12-05T14:00:00Z,27.8903,-94.0367,19.1,11144222 
TABS,ioos:station:wmo:42046:1,2007-12-05T14:30:00Z,27.8903,-94.0367,19.2,11144222 
TABS,ioos:station:wmo:42046:1,2007-12-05T15:00:00Z,27.8903,-94.0367,19.4,11144222 
TABS,ioos:station:wmo:42046:1,2007-12-05T15:30:00Z,27.8903,-94.0367,19.7,11144222 
TABS,ioos:station:wmo:42046:1,2007-12-05T16:00:00Z,27.8903,-94.0367,22.7,11144222 
TABS,ioos:station:wmo:42046:1,2007-12-05T16:30:00Z,27.8903,-94.0367,20.6,11144222 
TABS,ioos:station:wmo:42046:1,2007-12-05T17:00:00Z,27.8903,-94.0367,20.5,11144222 
TABS,ioos:station:wmo:42046:1,2007-12-05T17:30:00Z,27.8903,-94.0367,20.8,11144222 
TABS,ioos:station:wmo:42046:1,2007-12-05T18:00:00Z,27.8903,-94.0367,21.0,11144222 
TABS,ioos:station:wmo:42046:1,2007-12-05T18:30:00Z,27.8903,-94.0367,20.8,11144222 
TABS,ioos:station:wmo:42046:1,2007-12-05T19:00:00Z,27.8903,-94.0367,21.2,11144222 
TABS,ioos:station:wmo:42046:1,2007-12-05T19:30:00Z,27.8903,-94.0367,21.3,11144222 
TABS,ioos:station:wmo:42046:1,2007-12-05T20:00:00Z,27.8903,-94.0367,21.4,11144222 
TABS,ioos:station:wmo:42046:1,2007-12-05T20:30:00Z,27.8903,-94.0367,21.5,11144222 
TABS,ioos:station:wmo:42046:1,2007-12-05T21:00:00Z,27.8903,-94.0367,21.6,11144222 
TABS,ioos:station:wmo:42046:1,2007-12-05T21:30:00Z,27.8903,-94.0367,21.8,11144222 
TABS,ioos:station:wmo:42046:1,2007-12-05T22:00:00Z,27.8903,-94.0367,21.9,11144222 
TABS,ioos:station:wmo:42046:1,2007-12-05T22:30:00Z,27.8903,-94.0367,21.9,11144222 
TABS,ioos:station:wmo:42046:1,2007-12-05T23:00:00Z,27.8903,-94.0367,21.6,11144222 
TABS,ioos:station:wmo:42046:1,2007-12-05T23:30:00Z,27.8903,-94.0367,21.0,11144222 
TABS,ioos:station:wmo:42046:1,2007-12-06T00:00:00Z,27.8903,-94.0367,21.1,11144222 
TABS,ioos:station:wmo:42046:1,2007-12-06T00:30:00Z,27.8903,-94.0367,20.8,11144222 
TABS,ioos:station:wmo:42046:1,2007-12-06T01:00:00Z,27.8903,-94.0367,21.0,11144222 
TABS,ioos:station:wmo:42046:1,2007-12-06T01:30:00Z,27.8903,-94.0367,21.0,11144222 
TABS,ioos:station:wmo:42046:1,2007-12-06T02:00:00Z,27.8903,-94.0367,21.0,11144222 
TABS,ioos:station:wmo:42046:1,2007-12-06T02:30:00Z,27.8903,-94.0367,20.8,11144222 
TABS,ioos:station:wmo:42046:1,2007-12-06T03:00:00Z,27.8903,-94.0367,20.9,11144222 
TABS,ioos:station:wmo:42046:1,2007-12-06T03:30:00Z,27.8903,-94.0367,20.9,11144222 
TABS,ioos:station:wmo:42046:1,2007-12-06T04:00:00Z,27.8903,-94.0367,20.9,11144222 
TABS,ioos:station:wmo:42046:1,2007-12-06T04:30:00Z,27.8903,-94.0367,20.9,11144222 
TABS,ioos:station:wmo:42046:1,2007-12-06T05:00:00Z,27.8903,-94.0367,20.9,11144222 
TABS,ioos:station:wmo:42046:1,2007-12-06T05:30:00Z,27.8903,-94.0367,20.8,11144222 
TABS,ioos:station:wmo:42046:1,2007-12-06T06:00:00Z,27.8903,-94.0367,20.9,11144222 
TABS,ioos:station:wmo:42046:1,2007-12-06T06:30:00Z,27.8903,-94.0367,20.9,11144222 
TABS,ioos:station:wmo:42046:1,2007-12-06T07:00:00Z,27.8903,-94.0367,20.8,11144222 
TABS,ioos:station:wmo:42046:1,2007-12-06T07:30:00Z,27.8903,-94.0367,20.9,11144222 
TABS,ioos:station:wmo:42046:1,2007-12-06T08:00:00Z,27.8903,-94.0367,20.8,11144222 
TABS,ioos:station:wmo:42046:1,2007-12-06T08:30:00Z,27.8903,-94.0367,20.8,11144222 
TABS,ioos:station:wmo:42046:1,2007-12-06T09:00:00Z,27.8903,-94.0367,20.8,11144222 
TABS,ioos:station:wmo:42046:1,2007-12-06T09:30:00Z,27.8903,-94.0367,20.8,11144222 
TABS,ioos:station:wmo:42046:1,2007-12-06T10:00:00Z,27.8903,-94.0367,20.9,11144222 
TABS,ioos:station:wmo:42046:1,2007-12-06T10:30:00Z,27.8903,-94.0367,20.8,11144222 
TABS,ioos:station:wmo:42046:1,2007-12-06T11:00:00Z,27.8903,-94.0367,20.7,11144222 
TABS,ioos:station:wmo:42046:1,2007-12-06T11:30:00Z,27.8903,-94.0367,20.9,11144222 
TABS,ioos:station:wmo:42046:1,2007-12-06T12:00:00Z,27.8903,-94.0367,20.8,11144222 
TABS,ioos:station:wmo:42046:1,2007-12-06T12:30:00Z,27.8903,-94.0367,20.8,11144222 
TABS,ioos:station:wmo:42046:1,2007-12-06T13:00:00Z,27.8903,-94.0367,20.9,11144222 
TABS,ioos:station:wmo:42046:1,2007-12-06T13:30:00Z,27.8903,-94.0367,20.9,11144222 
TABS,ioos:station:wmo:42046:1,2007-12-06T14:00:00Z,27.8903,-94.0367,21.7,11144222 
TABS,ioos:station:wmo:42046:1,2007-12-06T14:30:00Z,27.8903,-94.0367,21.8,11144222 
TABS,ioos:station:wmo:42046:1,2007-12-06T15:00:00Z,27.8903,-94.0367,22.1,11144222 
TABS,ioos:station:wmo:42046:1,2007-12-06T15:30:00Z,27.8903,-94.0367,21.7,11144222 
TABS,ioos:station:wmo:42046:1,2007-12-06T16:00:00Z,27.8903,-94.0367,21.7,11144222 
TABS,ioos:station:wmo:42046:1,2007-12-06T16:30:00Z,27.8903,-94.0367,21.7,11144222 
TABS,ioos:station:wmo:42046:1,2007-12-06T17:00:00Z,27.8903,-94.0367,22.0,11144222 
TABS,ioos:station:wmo:42046:1,2007-12-06T17:30:00Z,27.8903,-94.0367,22.0,11144222 
TABS,ioos:station:wmo:42046:1,2007-12-06T18:00:00Z,27.8903,-94.0367,22.0,11144222 
TABS,ioos:station:wmo:42046:1,2007-12-06T18:30:00Z,27.8903,-94.0367,22.2,11144222 
TABS,ioos:station:wmo:42046:1,2007-12-06T19:00:00Z,27.8903,-94.0367,22.0,11144222 
TABS,ioos:station:wmo:42046:1,2007-12-06T19:30:00Z,27.8903,-94.0367,22.1,11144222 
TABS,ioos:station:wmo:42046:1,2007-12-06T20:00:00Z,27.8903,-94.0367,22.2,11144222 
TABS,ioos:station:wmo:42046:1,2007-12-06T20:30:00Z,27.8903,-94.0367,21.8,11144222 
TABS,ioos:station:wmo:42046:1,2007-12-06T21:00:00Z,27.8903,-94.0367,22.0,11144222 
TABS,ioos:station:wmo:42046:1,2007-12-06T21:30:00Z,27.8903,-94.0367,22.3,11144222 
TABS,ioos:station:wmo:42046:1,2007-12-06T22:00:00Z,27.8903,-94.0367,22.0,11144222 
TABS,ioos:station:wmo:42046:1,2007-12-06T22:30:00Z,27.8903,-94.0367,21.5,11144222 
TABS,ioos:station:wmo:42046:1,2007-12-06T23:00:00Z,27.8903,-94.0367,21.7,11144222 